• In Hungary
  • List of Countries
  • For 7 days
  • Water Temperature
  • Satellite Maps
  • Weather Map
  • News
  • Weather Widgets
  • user-avatar
    Login

    Hourly Weather Mazari Sharif

    Today, 23 February, Friday

    Time Temperature Precipitation Wind Pressure Humidity
    00:00 +8°C° 0 mm 2 mps 653 mmHg 52%
    01:00 +8°C° 0 mm 2 mps 653 mmHg 51%
    02:00 +8°C° 0 mm 2 mps 652 mmHg 49%
    03:00 +7°C° 0 mm 2 mps 652 mmHg 47%
    04:00 +7°C° 0 mm 3 mps 652 mmHg 45%
    05:00 +7°C° 0 mm 3 mps 652 mmHg 44%
    06:00 +7°C° 0 mm 3 mps 652 mmHg 42%
    07:00 +8°C° 0 mm 3 mps 652 mmHg 41%
    08:00 +9°C° 0 mm 2 mps 652 mmHg 36%
    09:00 +12°C° 0 mm 2 mps 652 mmHg 31%
    10:00 +14°C° 0 mm 2 mps 652 mmHg 28%
    11:00 +15°C° 0 mm 2 mps 652 mmHg 27%
    12:00 +15°C° 0 mm 2 mps 651 mmHg 27%
    13:00 +16°C° 0 mm 2 mps 651 mmHg 26%
    14:00 +15°C° 0 mm 2 mps 651 mmHg 28%
    15:00 +15°C° 0 mm 2 mps 651 mmHg 30%
    16:00 +14°C° 0 mm 2 mps 650 mmHg 35%
    17:00 +13°C° 0.1 mm 2 mps 650 mmHg 39%
    18:00 +12°C° 0.1 mm 2 mps 650 mmHg 42%
    19:00 +10°C° 0.1 mm 2 mps 650 mmHg 46%
    20:00 +10°C° 0.1 mm 2 mps 650 mmHg 49%
    21:00 +9°C° 0.1 mm 2 mps 650 mmHg 52%
    22:00 +9°C° 0.1 mm 3 mps 650 mmHg 55%
    23:00 +8°C° 0.1 mm 3 mps 650 mmHg 58%

    Tomorrow, 24 February, Saturday

    Time Temperature Precipitation Wind Pressure Humidity
    00:00 +8°C° 0.1 mm 3 mps 650 mmHg 60%
    01:00 +8°C° 0.1 mm 3 mps 650 mmHg 62%
    02:00 +7°C° 0.2 mm 3 mps 650 mmHg 64%
    03:00 +7°C° 0.2 mm 3 mps 650 mmHg 67%
    04:00 +5°C° 0.2 mm 3 mps 651 mmHg 69%
    05:00 +5°C° 0.2 mm 3 mps 651 mmHg 70%
    06:00 +6°C° 0.2 mm 2 mps 651 mmHg 71%
    07:00 +6°C° 0.2 mm 2 mps 652 mmHg 72%
    08:00 +6°C° 0.2 mm 2 mps 652 mmHg 70%
    09:00 +7°C° 0.2 mm 2 mps 652 mmHg 68%
    10:00 +7°C° 0.2 mm 2 mps 653 mmHg 65%
    11:00 +8°C° 0.2 mm 2 mps 653 mmHg 64%
    12:00 +8°C° 0.2 mm 2 mps 653 mmHg 64%
    13:00 +8°C° 0.2 mm 2 mps 653 mmHg 63%
    14:00 +9°C° 0.1 mm 2 mps 653 mmHg 62%
    15:00 +9°C° 0.1 mm 2 mps 653 mmHg 61%
    16:00 +9°C° 0.1 mm 2 mps 653 mmHg 61%
    17:00 +9°C° 0.1 mm 2 mps 653 mmHg 64%
    18:00 +9°C° 0.1 mm 1 mps 654 mmHg 67%
    19:00 +9°C° 0.1 mm 1 mps 654 mmHg 70%
    20:00 +9°C° 0 mm 1 mps 654 mmHg 70%
    21:00 +8°C° 0 mm 1 mps 654 mmHg 70%
    22:00 +8°C° 0 mm 1 mps 654 mmHg 70%
    23:00 +7°C° 0 mm 2 mps 655 mmHg 68%

    Day after tomorrow, 25 February, Sunday

    Time Temperature Precipitation Wind Pressure Humidity
    00:00 +7°C° 0 mm 2 mps 655 mmHg 66%
    01:00 +7°C° 0 mm 3 mps 655 mmHg 64%
    02:00 +7°C° 0 mm 3 mps 655 mmHg 62%
    03:00 +7°C° 0 mm 3 mps 655 mmHg 61%
    04:00 +7°C° 0 mm 3 mps 655 mmHg 59%
    05:00 +7°C° 0 mm 3 mps 655 mmHg 57%
    06:00 +7°C° 0 mm 3 mps 655 mmHg 55%
    07:00 +7°C° 0 mm 4 mps 656 mmHg 53%
    08:00 +10°C° 0 mm 4 mps 656 mmHg 48%
    09:00 +11°C° 0 mm 4 mps 656 mmHg 43%
    10:00 +13°C° 0 mm 4 mps 656 mmHg 38%
    11:00 +14°C° 0 mm 4 mps 655 mmHg 36%
    12:00 +15°C° 0 mm 4 mps 655 mmHg 34%
    13:00 +17°C° 0 mm 4 mps 655 mmHg 32%
    14:00 +16°C° 0 mm 3 mps 654 mmHg 34%
    15:00 +16°C° 0 mm 3 mps 654 mmHg 36%
    16:00 +16°C° 0 mm 3 mps 653 mmHg 38%
    17:00 +14°C° 0.1 mm 3 mps 653 mmHg 41%
    18:00 +13°C° 0.1 mm 3 mps 652 mmHg 44%
    19:00 +12°C° 0.1 mm 3 mps 652 mmHg 47%
    20:00 +12°C° 0.5 mm 3 mps 652 mmHg 50%
    21:00 +13°C° 0.5 mm 2 mps 652 mmHg 52%
    22:00 +12°C° 0.5 mm 2 mps 652 mmHg 54%
    23:00 +11°C° 0.2 mm 3 mps 652 mmHg 55%

    26 February, Monday

    Time Temperature Precipitation Wind Pressure Humidity
    00:00 +11°C° 0.2 mm 3 mps 651 mmHg 56%
    01:00 +10°C° 0.2 mm 3 mps 651 mmHg 57%
    02:00 +10°C° 0 mm 4 mps 651 mmHg 57%
    03:00 +10°C° 0 mm 4 mps 651 mmHg 56%
    04:00 +10°C° 0 mm 4 mps 650 mmHg 56%
    05:00 +10°C° 0 mm 4 mps 650 mmHg 55%
    06:00 +10°C° 0 mm 4 mps 650 mmHg 55%
    07:00 +10°C° 0 mm 4 mps 650 mmHg 54%
    08:00 +12°C° 0 mm 4 mps 651 mmHg 49%
    09:00 +14°C° 0 mm 4 mps 651 mmHg 44%
    10:00 +15°C° 0 mm 4 mps 651 mmHg 39%
    11:00 +17°C° 0 mm 4 mps 651 mmHg 37%
    12:00 +18°C° 0 mm 4 mps 651 mmHg 35%
    13:00 +19°C° 0 mm 4 mps 651 mmHg 33%
    14:00 +18°C° 0 mm 3 mps 650 mmHg 36%
    15:00 +18°C° 0 mm 3 mps 650 mmHg 39%
    16:00 +17°C° 0 mm 3 mps 650 mmHg 42%
    17:00 +14°C° 0.1 mm 4 mps 651 mmHg 53%
    18:00 +12°C° 0.1 mm 5 mps 651 mmHg 63%
    19:00 +10°C° 0.1 mm 5 mps 651 mmHg 74%
    20:00 +9°C° 0.8 mm 5 mps 652 mmHg 77%
    21:00 +10°C° 0.8 mm 4 mps 652 mmHg 79%
    22:00 +10°C° 0.8 mm 4 mps 653 mmHg 81%
    23:00 +10°C° 0.8 mm 4 mps 653 mmHg 79%

    27 February, Tuesday

    Time Temperature Precipitation Wind Pressure Humidity
    00:00 +10°C° 0.8 mm 3 mps 653 mmHg 76%
    01:00 +10°C° 0.8 mm 3 mps 654 mmHg 73%
    02:00 +10°C° 0.1 mm 3 mps 654 mmHg 71%
    03:00 +10°C° 0.1 mm 3 mps 654 mmHg 70%
    04:00 +10°C° 0.1 mm 2 mps 654 mmHg 68%
    05:00 +10°C° 0 mm 2 mps 655 mmHg 67%
    06:00 +10°C° 0 mm 2 mps 655 mmHg 66%
    07:00 +10°C° 0 mm 2 mps 656 mmHg 65%
    08:00 +12°C° 0.1 mm 2 mps 656 mmHg 60%
    09:00 +13°C° 0.1 mm 2 mps 656 mmHg 55%
    10:00 +15°C° 0.1 mm 2 mps 657 mmHg 51%
    11:00 +14°C° 0.1 mm 3 mps 656 mmHg 50%
    12:00 +16°C° 0.1 mm 3 mps 656 mmHg 48%
    13:00 +16°C° 0.1 mm 3 mps 656 mmHg 47%
    14:00 +16°C° 0.2 mm 3 mps 656 mmHg 49%
    15:00 +14°C° 0.2 mm 3 mps 656 mmHg 51%
    16:00 +14°C° 0.2 mm 3 mps 655 mmHg 53%
    17:00 +13°C° 0.5 mm 3 mps 656 mmHg 58%
    18:00 +13°C° 0.5 mm 2 mps 656 mmHg 62%
    19:00 +13°C° 0.5 mm 2 mps 656 mmHg 67%
    20:00 +12°C° 0.2 mm 2 mps 656 mmHg 67%
    21:00 +12°C° 0.2 mm 2 mps 656 mmHg 67%
    22:00 +12°C° 0.2 mm 2 mps 656 mmHg 68%
    23:00 +12°C° 0 mm 2 mps 655 mmHg 67%

    28 February, Wednesday

    Time Temperature Precipitation Wind Pressure Humidity
    00:00 +10°C° 0 mm 2 mps 655 mmHg 67%
    01:00 +10°C° 0 mm 2 mps 654 mmHg 66%
    02:00 +10°C° 0 mm 2 mps 654 mmHg 66%
    03:00 +9°C° 0 mm 2 mps 654 mmHg 65%
    04:00 +9°C° 0 mm 2 mps 654 mmHg 65%
    05:00 +9°C° 0 mm 2 mps 654 mmHg 63%
    06:00 +10°C° 0 mm 2 mps 654 mmHg 61%
    07:00 +10°C° 0 mm 2 mps 654 mmHg 59%
    08:00 +12°C° 0 mm 2 mps 655 mmHg 53%
    09:00 +14°C° 0 mm 2 mps 655 mmHg 47%
    10:00 +15°C° 0 mm 1 mps 655 mmHg 41%
    11:00 +16°C° 0 mm 2 mps 655 mmHg 39%
    12:00 +17°C° 0 mm 2 mps 655 mmHg 38%
    13:00 +17°C° 0 mm 2 mps 654 mmHg 36%
    14:00 +17°C° 0 mm 2 mps 654 mmHg 37%
    15:00 +17°C° 0 mm 2 mps 654 mmHg 38%
    16:00 +17°C° 0 mm 2 mps 654 mmHg 39%
    17:00 +16°C° 0.1 mm 2 mps 654 mmHg 44%
    18:00 +15°C° 0.1 mm 1 mps 654 mmHg 48%
    19:00 +15°C° 0.1 mm 1 mps 654 mmHg 52%
    20:00 +14°C° 0.2 mm 1 mps 654 mmHg 53%
    21:00 +14°C° 0.2 mm 1 mps 654 mmHg 54%
    22:00 +14°C° 0.2 mm 2 mps 654 mmHg 55%
    23:00 +13°C° 0.3 mm 1 mps 654 mmHg 59%
    Show more